Location: Hilina Pali Trail
(19.2864°N, 155.2806°W)
Time: 12:15:17
(UTC+00:00)

Daily predictions for brighter satellites

Satellite Brightness Start Highest point End
(mag) Time Altitude Azimuth Time Altitude Azimuth Time Altitude Azimuth
CZ-3A R/B 4.2 13:46:15 60° S 13:46:15 60° S 23:07:20 10° ESE
Ariane H10-3 4.2 14:14:26 26° SSW 14:14:26 26° SSW 14:18:07 10° SE
Cosmos 2100 Rocket 4.0 14:16:53 76° NE 14:17:11 78° E 14:23:31 10° S
Meteor 2-10 Rocket 4.3 14:16:14 47° NE 14:17:27 56° E 14:23:05 10° SSE
ISS -0.4 14:24:03 10° ENE 14:24:03 10° ENE 14:24:06 10° ENE
Atlas Centaur 2 3.6 14:24:03 37° N 14:25:00 39° N 14:32:46 10° ENE
Cosmos 1992 Rocket 4.3 14:20:36 10° S 14:26:20 62° ENE 14:30:57 10° NNE
Cosmos 1802 Rocket 4.0 14:28:17 34° N 14:31:14 78° E 14:37:33 10° S
Cosmos 1603 4.4 14:28:26 10° S 14:33:50 52° ESE 14:39:17 10° NNE
Cosmos 2123 Rocket 3.8 14:34:00 10° S 14:40:10 78° W 14:46:25 10° N
Cosmos 1725 Rocket 4.2 14:48:17 10° N 14:54:25 69° E 15:00:32 10° SSE
Cosmos 1340 3.5 14:55:50 39° S 14:55:50 39° S 14:58:19 10° S
SJ-6F 4.3 14:56:21 43° N 14:57:39 77° WNW 15:01:48 10° SSW
GPS 2-15 Rocket1 3.0 14:58:37 63° W 14:59:22 88° N 15:04:02 10° E
Cosmos 2242 Rocket 3.5 14:58:00 25° N 15:00:31 83° E 15:04:54 10° S
CZ-4B R/B 3.5 14:57:28 10° N 15:02:44 42° WNW 15:07:58 10° SW
Cosmos 2297 4.2 15:00:40 10° N 15:06:18 60° ENE 15:11:53 10° SSE
Cosmos 2061 Rocket 4.2 15:03:19 27° NW 15:06:26 46° W 15:12:29 10° SSW
Cosmos 1862 Rocket 3.7 15:04:45 10° N 15:09:13 78° E 15:13:38 10° S
IRS-1C Rocket 4.4 15:05:55 10° N 15:10:45 39° WNW 15:15:36 10° SW
Cosmos 2278 Rocket 2.7 15:11:16 34° WNW 15:12:23 38° WSW 15:17:33 10° S
Cosmos 2016 Rocket 4.1 15:10:51 14° NNW 15:15:47 47° W 15:21:34 10° SSW
Milstar 3 Cent rocket 4.5 15:08:22 25° W 15:15:59 72° NNW 15:39:46 10° ENE
IDEFIX/ARIANE 42P 3.5 15:11:04 10° NNE 15:16:04 49° E 15:21:03 10° S
Cosmos 1486 Rocket 4.1 15:17:32 20° NNW 15:21:02 53° WSW 15:26:11 10° S
Meteor 2-12 Rocket 4.3 15:15:06 10° N 15:21:07 74° W 15:27:10 10° S
Hubble Space Telescope 2.3 15:21:57 20° NNW 15:23:00 22° N 15:26:15 10° NE
Cosmos 1825 2.0 15:25:48 10° S 15:29:33 74° W 15:33:18 10° N
ASTRO E2 2.6 15:30:13 26° WNW 15:32:21 81° NNE 15:36:20 10° ESE
USA 32 4.3 15:27:42 10° SSW 15:32:39 45° W 15:37:37 10° NNW
GPS 2-17 Rocket1 3.0 15:33:15 21° W 15:36:20 82° N 15:40:52 10° E
Cosmos 1354 Rocket 3.9 15:31:51 10° NNW 15:37:05 83° WSW 15:42:19 10° S
Cosmos 1943 3.1 15:31:58 10° SSW 15:37:39 75° WNW 15:43:20 10° NNE
Genesis I 3.0 15:41:38 10° SSW 15:45:26 76° WNW 15:49:18 10° NNE
ATLAS 5 CENTAUR R/B 2.1 15:42:54 10° SW 15:46:58 35° WNW 15:51:13 10° N
MSX 4.1 15:48:09 10° NNE 15:53:54 77° ESE 15:59:37 10° S
USA 215 3.3 15:48:10 10° NNE 15:54:32 57° NW 16:00:53 10° SW
Tiangong 2 4.4 15:54:18 10° SSE 15:55:47 13° SE 15:57:18 10° ESE
Cosmos 2221 Rocket 4.4 15:52:59 10° N 15:57:23 56° E 16:01:49 10° SSE
ISS -2.7 15:56:45 12° WNW 15:59:14 28° SW 16:02:04 10° S
IUS-1 SRM-2 4.4 15:55:18 11° WNW 15:59:21 61° NNE 16:22:02 10° E
Okean-O 3.5 15:55:59 10° NNW 15:59:41 27° WNW 16:03:23 10° SW
SJ-12 4.1 15:55:45 10° NNE 15:59:50 78° E 16:03:54 10° S
Cosmos 1869 Rocket 4.1 15:57:35 10° SSW 16:01:31 34° W 16:05:29 10° NNW
Cosmos 2233 Rocket 4.3 15:58:48 10° NNW 16:04:32 43° W 16:10:17 10° SSW
Cosmos 1606 2.6 16:00:49 10° N 16:04:37 70° W 16:08:26 10° S
Cosmos 1703 Rocket 3.6 16:04:13 10° NNW 16:08:27 54° W 16:12:39 10° S
Atlas Centaur 2 3.4 16:07:29 10° WNW 16:15:39 66° NNE 16:24:07 10° ESE
ATLAS 5 CENTAUR R/B 3.8 15:50:52 10° W 16:19:00 46° SW 16:24:44 10° SE
